This demonstration page uses our WeatherBlox Daily Observations layout. Learn more.

Left ArrowRight Arrow

44.8408, -93.29828

Hourly Observations for March 10, 2016

Temp ( °F °C ) Dew Point ( °F °C ) Humidity (%) Winds ( mph kmh ) Pressure ( in mb ) Visibility ( mi km ) Precip ( " mm )
12:53 am 00:53 Cloudy 36 2.2 33 0.6 89 89 W 8 13 30.09 1019 10 16 0.00 0.00
1:53 am 01:53 Cloudy 36 2.2 32 0 86 86 W 9 15 30.11 1020 10 16 0.00 0.00
2:35 am 02:35 Cloudy 35 1.7 32 0 89 89 WNW 9 15 30.12 1020 10 16 0.00 0.00
2:53 am 02:53 Cloudy 35 1.7 32 0 89 89 W 8 13 30.11 1020 10 16 0.00 0.00
3:53 am 03:53 Cloudy with Mist and Fog 34 1.1 32 0 92 92 WNW 8 13 30.12 1020 6 10 0.00 0.00
4:53 am 04:53 Cloudy 34 1.1 31 -0.6 89 89 WNW 8 13 30.15 1021 7 11 0.00 0.00
5:53 am 05:53 Cloudy 34 1.1 31 -0.6 89 89 W 3 6 30.15 1021 8 13 0.00 0.00
6:53 am 06:53 Cloudy with Mist and Fog 34 1.1 32 0 92 92 W 6 9 30.17 1022 3 5 0.00 0.00
7:00 am 07:00 Cloudy with Mist and Fog 34 1.1 32 0 92 92 W 7 11 30.18 1022 3 4 0.00 0.00
7:23 am 07:23 Cloudy with Mist and Fog 34 1.1 32 0 92 92 W 6 9 30.18 1022 3 5 0.00 0.00
7:53 am 07:53 Cloudy with Mist and Fog 34 1.1 31 -0.6 89 89 W 7 11 30.19 1022 3 5 0.00 0.00
8:02 am 08:02 Cloudy with Mist and Fog 34 1.1 31 -0.6 89 89 W 6 9 30.18 1022 4 6 0.00 0.00
8:37 am 08:37 Cloudy 34 1.1 31 -0.6 89 89 W 7 11 30.21 1023 9 14 0.00 0.00
8:53 am 08:53 Cloudy 34 1.1 31 -0.6 89 89 NW 5 7 30.20 1023 10 16 0.00 0.00
9:53 am 09:53 Cloudy 34 1.1 30 -1.1 85 85 WNW 6 9 30.21 1023 10 16 0.00 0.00
10:07 am 10:07 Cloudy 34 1.1 30 -1.1 85 85 W 6 9 30.21 1023 10 16 0.00 0.00
10:53 am 10:53 Cloudy 35 1.7 29 -1.7 78 78 W 3 6 30.21 1023 10 16 0.00 0.00
11:53 am 11:53 Cloudy 36 2.2 29 -1.7 76 76 WSW 5 7 30.21 1023 10 16 0.00 0.00
12:42 pm 12:42 Mostly Cloudy 38 3.3 29 -1.7 70 70 WSW 6 9 30.21 1023 10 16 0.00 0.00
12:53 pm 12:53 Mostly Cloudy 40 4.4 29 -1.7 65 65 WNW 7 11 30.21 1023 10 16 0.00 0.00
1:23 pm 13:23 Partly Cloudy 40 4.4 29 -1.7 65 65 VRB 3 6 30.21 1023 10 16 0.00 0.00
1:53 pm 13:53 Sunny 42 5.6 29 -1.7 60 60 Calm 30.19 1022 10 16 0.00 0.00
2:53 pm 14:53 Sunny 45 7.2 28 -2.2 52 52 Calm 30.19 1022 10 16 0.00 0.00
3:53 pm 15:53 Sunny 47 8.3 28 -2.2 48 48 N 5 7 30.18 1022 10 16 0.00 0.00
4:53 pm 16:53 Sunny 47 8.3 29 -1.7 50 50 Calm 30.17 1022 10 16 0.00 0.00
5:53 pm 17:53 Sunny 46 7.8 29 -1.7 51 51 SSE 3 6 30.18 1022 10 16 0.00 0.00
6:53 pm 18:53 Clear 44 6.7 28 -2.2 53 53 S 3 6 30.22 1023 10 16 0.00 0.00
7:53 pm 19:53 Clear 44 6.7 29 -1.7 55 55 VRB 5 7 30.24 1024 10 16 0.00 0.00
8:53 pm 20:53 Clear 41 5 29 -1.7 62 62 S 5 7 30.27 1025 10 16 0.00 0.00
9:53 pm 21:53 Clear 36 2.2 28 -2.2 73 73 Calm 30.27 1025 10 16 0.00 0.00
10:53 pm 22:53 Clear 37 2.8 29 -1.7 73 73 Calm 30.27 1025 10 16 0.00 0.00
11:53 pm 23:53 Clear 33 0.6 27 -2.8 78 78 SE 5 7 30.27 1025 10 16 0.00 0.00

Powered by AerisWeather